[[{"header":{"parameterUnit":"m.s-1","parameterCategory":1,"la1":30.2991,"la2":30.254,"lo1":-89.0895,"lo2":-89.0444,"dy":0.0017,"dx":0.0017,"nx":28,"ny":28,"refTime":"2024-10-03T09:00:00:Z","depth":0,"parameterNumber":2,"parameterNumberName":"U-component_of_WINDS"},"data":[0,0,0,0,0,0,0,0,0,0,0,0,0,0,0,0,0,0,0,0,0,0,0,0,0,0,0,0,0,0,0,0,0,0,0,0,0,0,0,0,0,0,0,0,0,0,0,0,0,0,0,0,0,0,0,0,0,0,-2.2262,-2.2263,0,-2.2429,-2.2431,-2.2433,-2.2494,-2.2494,-2.2493,-2.2492,-2.2663,-2.2667,-2.2672,0,0,0,0,0,0,0,0,0,0,0,0,0,-2.1993,-2.1997,-2.2261,-2.2264,-2.2266,-2.2429,-2.2431,-2.2433,-2.2494,-2.2494,-2.2493,-2.2492,-2.2661,-2.2667,-2.2673,0,0,0,0,0,0,0,0,0,0,0,0,0,-2.213,-2.1999,-2.2261,-2.2316,-2.2322,-2.2428,-2.2431,-2.2434,-2.2494,-2.2494,-2.2493,-2.2492,-2.2659,-2.2666,-2.2674,-2.2737,0,0,-2.2697,-2.27,0,0,0,0,0,0,0,0,-2.2122,-2.2139,-2.2306,-2.2312,-2.232,-2.244,-2.2399,-2.2536,-2.2495,-2.2429,-2.2492,-2.2491,-2.2589,-2.2602,-2.2636,-2.2745,-2.2753,-2.2698,-2.2702,-2.2705,-2.2708,0,0,0,0,0,0,0,-2.2112,-2.2132,-2.2328,-2.2308,-2.2317,-2.2331,-2.235,-2.2425,-2.2512,-2.2435,-2.2439,-2.2459,-2.2593,-2.2628,-2.264,-2.2755,-2.2697,-2.2704,-2.2709,-2.2712,-2.2925,-2.2926,0,0,0,0,0,0,-2.2094,-2.2124,-2.2322,-2.2333,-2.2217,-2.2337,-2.2358,-2.2402,-2.2511,-2.2527,-2.2459,-2.2461,-2.2616,-2.2631,-2.2646,-2.2727,-2.2705,-2.2712,-2.2717,-2.2924,-2.2925,-2.2926,0,0,0,0,0,0,-2.2088,-2.2111,-2.2316,-2.223,-2.2257,-2.2342,-2.2392,-2.2406,-2.2441,-2.253,-2.2545,-2.2479,-2.2616,-2.2636,-2.2714,-2.2734,-2.2716,-2.2723,-2.2923,-2.2924,-2.2926,-2.289,0,0,0,0,0,0,-2.208,-2.2108,-2.2134,-2.223,-2.2261,-2.2381,-2.2393,-2.241,-2.2454,-2.2458,-2.2553,-2.2568,-2.2616,-2.2703,-2.2722,-2.2744,-2.2729,-2.2921,-2.2923,-2.2925,-2.289,-2.289,-2.2891,0,0,0,0,0,-2.207,-2.2117,-2.2135,-2.2158,-2.2295,-2.2382,-2.24,-2.2456,-2.2456,-2.2482,-2.2538,-2.2565,-2.2729,-2.271,-2.2732,-2.2757,-2.292,-2.2923,-2.2925,-2.2889,-2.289,-2.2891,0,0,0,0,0,0,-2.202,-2.213,-2.2151,-2.2231,-2.2297,-2.2392,-2.2427,-2.2455,-2.2522,-2.2522,-2.2588,-2.2609,-2.2682,-2.2728,-2.2705,-2.2824,-2.2826,-2.2833,-2.2791,-2.2793,-2.2793,-2.278,-2.2735,0,0,0,0,0,-2.2018,-2.208,-2.2173,-2.2234,-2.2266,-2.2341,-2.2381,-2.2418,-2.2489,-2.2517,-2.2579,-2.2646,-2.2713,-2.2756,-2.2822,-2.2897,-2.2918,-2.2925,-2.2925,-2.2925,-2.293,-2.2973,-2.2977,-2.2935,-2.2935,-2.2935,0,0,-2.2015,-2.2083,-2.2118,-2.2226,-2.2281,-2.2343,-2.2364,-2.2429,-2.2475,-2.2526,-2.2604,-2.2653,-2.2732,-2.2809,-2.2846,-2.2849,-2.2947,-2.2929,-2.2928,-2.2933,-2.2976,-2.298,-2.2983,-2.2936,-2.2936,-2.2936,0,0,-2.2041,-2.2099,-2.2156,-2.2211,-2.2295,-2.2344,-2.2358,-2.245,-2.2483,-2.2563,-2.2603,-2.2659,-2.2773,-2.2828,-2.287,-2.2917,-2.2943,-2.2937,-2.2938,-2.2979,-2.2982,-2.2985,-2.3001,-2.3006,-2.2942,-2.2942,-2.2942,0,-2.2026,-2.2122,-2.2182,-2.2245,-2.229,-2.234,-2.2398,-2.2449,-2.2549,-2.258,-2.2582,-2.2726,-2.2783,-2.2873,-2.2884,-2.2918,-2.2935,-2.2926,-2.2977,-2.2981,-2.2985,-2.3001,-2.3006,-2.294,-2.294,-2.294,-2.2941,0,-2.2099,-2.2165,-2.2201,-2.2297,-2.2347,-2.2407,-2.2475,-2.2519,-2.2552,-2.2601,-2.2681,-2.2751,-2.2832,-2.2857,-2.2889,-2.2951,-2.2951,-2.2964,-2.2967,-2.2986,-2.3002,-2.3009,-2.2938,-2.2939,-2.2939,-2.2939,0,0,-2.2098,-2.2227,-2.2239,-2.2283,-2.2379,-2.243,-2.2492,-2.2572,-2.2608,-2.2676,-2.2729,-2.2825,-2.2838,-2.2886,-2.2926,-2.2962,-2.2993,-2.2971,-2.2974,-2.2972,-2.3065,-2.3053,-2.3059,-2.3012,-2.3013,-2.3014,-2.3058,0,-2.2135,-2.2249,-2.2304,-2.2393,-2.2454,-2.2502,-2.2556,-2.2621,-2.2668,-2.2726,-2.2779,-2.2845,-2.2858,-2.2887,-2.2925,-2.2981,-2.3012,-2.2979,-2.3061,-2.3063,-2.3038,-2.3068,-2.3056,-2.3093,-2.3065,-2.3066,-2.3066,0,-2.2194,-2.2262,-2.2357,-2.2446,-2.2473,-2.2521,-2.2598,-2.2654,-2.2728,-2.276,-2.2814,-2.2852,-2.2919,-2.2918,-2.301,-2.2986,-2.3024,-2.3056,-2.3059,-2.3068,-2.3065,-2.3076,-2.3107,-2.3112,-2.3077,-2.3076,-2.3075,0,-2.2182,-2.2297,-2.2369,-2.2405,-2.2511,-2.2543,-2.2588,-2.2662,-2.2706,-2.2774,-2.2803,-2.2878,-2.2918,-2.2975,-2.3032,-2.3027,-2.3119,-2.3123,-2.3147,-2.3145,-2.3163,-2.3161,-2.3199,-2.3188,-2.3188,-2.3188,-2.3188,0,-2.2218,-2.2273,-2.2365,-2.2408,-2.2472,-2.2535,-2.2597,-2.2646,-2.2711,-2.2765,-2.2811,-2.2861,-2.2934,-2.2993,-2.3039,-2.3108,-2.3126,-2.3153,-2.3165,-2.3149,-2.3145,-2.3173,-2.3171,-2.319,-2.3189,-2.3189,-2.3189,0,-2.2214,-2.2278,-2.2359,-2.2452,-2.2477,-2.252,-2.2599,-2.2644,-2.2693,-2.2761,-2.2781,-2.2859,-2.293,-2.2994,-2.3088,-2.3119,-2.3189,-2.3204,-2.3164,-2.317,-2.319,-2.3187,-2.3246,-2.3257,-2.324,-2.324,-2.324,0,-2.2232,-2.2276,-2.2374,-2.2414,-2.2459,-2.2522,-2.2567,-2.2631,-2.2677,-2.2764,-2.2798,-2.2873,-2.2936,-2.3048,-2.3113,-2.3186,-2.3202,-2.3218,-2.3213,-2.3195,-2.3201,-2.3197,-2.3202,-2.3217,-2.3217,-2.3217,-2.3217,0,-2.2257,-2.2286,-2.235,-2.2425,-2.2478,-2.254,-2.2604,-2.2633,-2.2709,-2.2758,-2.2832,-2.2881,-2.2978,-2.3051,-2.3131,-2.3178,-2.321,-2.3218,-2.3227,-2.321,-2.3185,-2.3198,-2.3162,-2.3216,-2.3216,-2.3216,-2.3216,-2.3216,-2.2265,-2.2306,-2.2381,-2.2451,-2.2505,-2.2563,-2.2609,-2.2665,-2.2727,-2.2811,-2.2845,-2.292,-2.2993,-2.3104,-2.3151,-2.321,-2.3216,-2.3229,-2.3233,-2.3235,-2.3231,-2.3177,-2.3225,-2.3225,-2.3225,-2.3225,-2.3225,0,-2.2291,-2.2342,-2.2405,-2.2492,-2.2547,-2.2573,-2.2644,-2.2688,-2.2753,-2.2819,-2.2881,-2.2965,-2.3037,-2.3108,-2.3183,-2.3217,-2.3234,-2.3235,-2.3232,-2.3243,-2.3222,-2.3206,-2.322,-2.322,-2.322,-2.322,-2.322,-2.322,-2.2311,-2.2382,-2.242,-2.2518,-2.2569,-2.2642,-2.2681,-2.2735,-2.2787,-2.288,-2.2939,-2.2985,-2.3053,-2.3134,-2.3201,-2.322,-2.3245,-2.3242,-2.3265,-2.3244,-2.3244,-2.3244,-2.3229,-2.3247,-2.3247,-2.328,-2.3281,-2.3281]},{"header":{"parameterUnit":"m.s-1","parameterCategory":1,"la1":30.2991,"la2":30.254,"lo1":-89.0895,"lo2":-89.0444,"dy":0.0017,"dx":0.0017,"nx":28,"ny":28,"refTime":"2024-10-03T09:00:00:Z","depth":0,"parameterNumber":3,"parameterNumberName":"V-component_of_WINDS"},"data":[0,0,0,0,0,0,0,0,0,0,0,0,0,0,0,0,0,0,0,0,0,0,0,0,0,0,0,0,0,0,0,0,0,0,0,0,0,0,0,0,0,0,0,0,0,0,0,0,0,0,0,0,0,0,0,0,0,0,2.3259,2.3259,0,2.3311,2.3311,2.3312,2.3274,2.3272,2.327,2.3269,2.3318,2.3321,2.3324,0,0,0,0,0,0,0,0,0,0,0,0,0,2.3124,2.3127,2.3259,2.3259,2.326,2.3311,2.3311,2.3312,2.3274,2.3272,2.327,2.3268,2.3317,2.3321,2.3324,0,0,0,0,0,0,0,0,0,0,0,0,0,2.318,2.3128,2.3259,2.3247,2.3247,2.331,2.3311,2.3312,2.3274,2.3272,2.327,2.3267,2.3316,2.332,2.3325,2.3401,0,0,2.3338,2.334,0,0,0,0,0,0,0,0,2.3177,2.3185,2.3248,2.3248,2.3248,2.3283,2.3282,2.3342,2.3275,2.3264,2.3269,2.3266,2.3308,2.3313,2.3328,2.3403,2.3405,2.3338,2.3341,2.3343,2.3344,0,0,0,0,0,0,0,2.3173,2.3182,2.3279,2.3249,2.3249,2.3239,2.3244,2.3293,2.3299,2.3265,2.3262,2.3269,2.3308,2.3324,2.3329,2.3406,2.3338,2.3342,2.3345,2.3346,2.3545,2.3548,0,0,0,0,0,0,2.3171,2.3179,2.3278,2.3281,2.3206,2.3243,2.3249,2.3274,2.3299,2.33,2.3271,2.3267,2.3318,2.3324,2.3331,2.342,2.3343,2.3347,2.3349,2.3543,2.3546,2.3549,0,0,0,0,0,0,2.3168,2.318,2.3275,2.3229,2.3241,2.3248,2.3277,2.3277,2.3293,2.3304,2.3304,2.3287,2.3316,2.3325,2.3384,2.3421,2.3349,2.3353,2.3539,2.3544,2.3547,2.36,0,0,0,0,0,0,2.3164,2.3179,2.3209,2.323,2.3244,2.3329,2.3279,2.3279,2.3301,2.3296,2.3319,2.332,2.3315,2.3378,2.3388,2.3426,2.3356,2.3536,2.3541,2.3546,2.3595,2.3606,2.3615,0,0,0,0,0,2.3159,2.3221,2.321,2.3222,2.3281,2.3331,2.3338,2.3332,2.3304,2.3333,2.334,2.3319,2.3417,2.3384,2.3395,2.3435,2.3533,2.354,2.3546,2.3591,2.3604,2.3615,0,0,0,0,0,0,2.3202,2.3224,2.3212,2.3283,2.3305,2.3324,2.3361,2.3346,2.3377,2.3371,2.3362,2.3367,2.3429,2.3438,2.3402,2.351,2.347,2.3479,2.3501,2.3513,2.3523,2.3518,2.3359,0,0,0,0,0,2.322,2.326,2.3276,2.3337,2.3349,2.3354,2.3375,2.3369,2.3391,2.34,2.3411,2.3433,2.3469,2.3492,2.3525,2.3598,2.3601,2.3631,2.3641,2.3649,2.3655,2.3693,2.3705,2.3569,2.3569,2.3569,0,0,2.3256,2.3273,2.3299,2.3346,2.3363,2.3403,2.3361,2.3406,2.3435,2.3407,2.3463,2.3472,2.3496,2.3562,2.3591,2.3572,2.3694,2.3656,2.3663,2.3665,2.37,2.3713,2.3725,2.3573,2.3572,2.3571,0,0,2.3343,2.3361,2.3413,2.3431,2.3457,2.346,2.3473,2.3495,2.35,2.3557,2.3536,2.3571,2.3632,2.3649,2.3666,2.3761,2.3742,2.3773,2.3822,2.3859,2.3869,2.3879,2.391,2.3922,2.378,2.378,2.378,0,2.3384,2.3445,2.3441,2.3487,2.3507,2.3486,2.3537,2.3555,2.3591,2.3605,2.3583,2.366,2.3674,2.3743,2.3766,2.3782,2.3794,2.3768,2.3869,2.3878,2.3887,2.3917,2.3929,2.3783,2.3783,2.3782,2.3782,0,2.3494,2.3536,2.3575,2.3611,2.3636,2.3685,2.3687,2.3713,2.3706,2.371,2.3768,2.3785,2.3821,2.3838,2.383,2.3905,2.3892,2.387,2.3829,2.3903,2.3931,2.3943,2.3788,2.3787,2.3786,2.3785,0,0,2.3605,2.364,2.3654,2.367,2.3698,2.373,2.3778,2.3814,2.3836,2.3862,2.39,2.3954,2.3933,2.3953,2.3947,2.398,2.4052,2.3954,2.3954,2.3969,2.4133,2.4147,2.4161,2.4041,2.4043,2.4045,2.413,0,2.3691,2.3775,2.3773,2.385,2.3888,2.3869,2.391,2.3932,2.3938,2.3971,2.3977,2.4014,2.3986,2.3997,2.4029,2.4036,2.4084,2.4031,2.4074,2.4075,2.4065,2.4176,2.4191,2.4271,2.4141,2.4143,2.4145,0,2.3802,2.3833,2.3914,2.3937,2.3952,2.399,2.4022,2.4055,2.4079,2.4081,2.4103,2.4093,2.414,2.4101,2.4165,2.4128,2.4146,2.4153,2.4156,2.4157,2.4112,2.4177,2.4296,2.4307,2.4162,2.4161,2.416,0,2.3872,2.3934,2.399,2.4005,2.4033,2.406,2.4073,2.4094,2.4116,2.4145,2.4159,2.4193,2.421,2.4237,2.4235,2.4207,2.4299,2.426,2.43,2.43,2.4317,2.4316,2.4438,2.4335,2.4334,2.4334,2.4334,0,2.3966,2.4016,2.4022,2.4056,2.4111,2.4109,2.4163,2.4173,2.4193,2.4228,2.4214,2.4247,2.4245,2.4278,2.4278,2.4329,2.4338,2.434,2.4338,2.4339,2.4338,2.4348,2.4341,2.4337,2.4337,2.4336,2.4335,0,2.4052,2.4058,2.4118,2.4141,2.4148,2.4187,2.4206,2.4238,2.4245,2.4289,2.4299,2.4308,2.4346,2.4349,2.4393,2.4392,2.4454,2.4448,2.4446,2.4444,2.4483,2.4478,2.4613,2.463,2.4518,2.4519,2.452,0,2.411,2.4148,2.4176,2.4199,2.4213,2.4251,2.4273,2.4273,2.4297,2.4328,2.4356,2.4393,2.4423,2.4485,2.4494,2.4528,2.452,2.4566,2.4525,2.4524,2.4518,2.4514,2.4517,2.4572,2.4573,2.4575,2.4575,0,2.4211,2.4213,2.4247,2.4282,2.431,2.4337,2.4363,2.4382,2.4385,2.4412,2.4452,2.4475,2.4521,2.4557,2.459,2.4602,2.4589,2.4589,2.4599,2.4599,2.4595,2.4595,2.4464,2.4585,2.4584,2.4583,2.4583,2.4582,2.4283,2.4315,2.434,2.4378,2.4398,2.4422,2.4453,2.4464,2.4497,2.4535,2.4533,2.4576,2.4599,2.4642,2.4657,2.469,2.4675,2.4691,2.4694,2.4697,2.47,2.4593,2.4697,2.4696,2.4696,2.4696,2.4696,0,2.4381,2.4397,2.4432,2.4469,2.4499,2.4486,2.4514,2.4539,2.4578,2.4601,2.4631,2.4676,2.4712,2.4725,2.476,2.4783,2.4778,2.4792,2.4789,2.4791,2.4713,2.4699,2.4796,2.4796,2.4796,2.4796,2.4796,2.4796,2.4436,2.4489,2.4494,2.4557,2.4572,2.4615,2.4632,2.4654,2.4673,2.4724,2.4754,2.4763,2.4782,2.4818,2.485,2.4853,2.4865,2.4881,2.4881,2.4807,2.4797,2.4787,2.4774,2.4885,2.4885,2.4956,2.4957,2.4958]}]]